FW1090 Weather Reports


Display with metric or nautical units.
time (UTC)temp
F
wind
direction
speed
MPH
gust
MPH
rain 1hr
in
rain 24hr
in
rain mn
in
humidity
%
barometer
mb
20260507123032 48 125 0.0 0.0 0.00 0.00 0.00 91 1003.9
20260507121530 49 109 0.0 1.0 0.00 0.00 0.00 90 1003.8
20260507120029 49 143 0.0 0.0 0.00 0.00 0.00 89 1004.1
20260507114541 49 248 0.0 0.0 0.00 0.00 0.00 89 1004.2
20260507113048 49 248 0.0 0.0 0.00 0.00 0.00 89 1004.2
20260507111535 49 185 0.0 0.0 0.00 0.00 0.00 89 1004.2
20260507110024 49 204 0.0 0.0 0.00 0.00 0.00 89 1004.3
20260507104532 49 202 0.0 0.0 0.00 0.00 0.00 89 1004.3
20260507103025 49 205 0.0 0.0 0.00 0.00 0.00 89 1004.4
20260507101524 50 198 0.0 0.0 0.00 0.00 0.00 89 1004.3
20260507100020 50 249 0.0 0.0 0.00 0.00 0.00 89 1004.4
20260507094520 50 214 0.0 0.0 0.00 0.00 0.00 89 1004.3
20260507093019 50 227 0.0 0.0 0.00 0.00 0.00 90 1004.4
20260507091518 50 232 0.0 0.0 0.00 0.00 0.00 90 1004.4
20260507090017 50 234 0.0 0.0 0.00 0.00 0.00 90 1004.3
20260507084515 50 239 0.0 3.0 0.00 0.00 0.00 90 1004.3
20260507083015 50 212 0.0 1.0 0.00 0.00 0.00 90 1004.4
20260507081516 51 182 0.0 0.0 0.00 0.00 0.00 91 1004.4
20260507080012 51 231 0.0 3.0 0.00 0.00 0.00 91 1004.4
20260507074510 51 248 0.0 3.0 0.00 0.00 0.00 91 1004.4
20260507073008 51 235 0.0 0.0 0.00 0.00 0.00 91 1004.3
20260507071505 51 233 0.0 0.0 0.00 0.00 0.00 90 1004.1
20260507070009 52 230 0.0 0.0 0.00 0.00 0.00 90 1004.2
20260507064501 52 240 0.0 0.0 0.00 0.00 0.00 90 1004.2
20260507063104 52 240 0.0 0.0 0.00 0.00 0.00 90 1004.2
20260507061601 52 239 0.0 0.0 0.00 0.00 0.00 90 1004.2
20260507060105 52 248 0.0 0.0 0.00 0.00 0.00 91 1004.3
20260507054600 52 247 0.0 0.0 0.00 0.00 0.00 91 1004.3
20260507053058 52 248 0.0 0.0 0.00 0.00 0.00 91 1004.4
20260507051557 53 247 0.0 0.0 0.00 0.00 0.00 91 1004.2
20260507050056 53 247 0.0 0.0 0.00 0.00 0.00 91 1004.2
20260507044609 53 247 0.0 0.0 0.00 0.00 0.00 91 1004.2
20260507043104 53 252 0.0 0.0 0.00 0.00 0.00 91 1004.2
20260507041557 53 249 0.0 0.0 0.00 0.00 0.00 91 1004.2
20260507040052 53 249 0.0 0.0 0.00 0.00 0.00 91 1004.1
20260507034554 53 249 0.0 0.0 0.00 0.00 0.00 91 1004.0
20260507033052 53 249 0.0 0.0 0.00 0.00 0.00 91 1003.9
20260507031550 54 249 0.0 0.0 0.00 0.00 0.00 90 1003.8
20260507030050 54 324 0.0 0.0 0.00 0.00 0.00 90 1003.6
20260507024553 54 330 0.0 0.0 0.00 0.00 0.00 90 1003.7
20260507023103 54 43 0.0 0.0 0.00 0.00 0.00 90 1003.5
20260507021550 54 317 0.0 0.0 0.00 0.00 0.00 90 1003.5
20260507020056 54 316 0.0 0.0 0.00 0.00 0.00 89 1003.5
20260507014547 54 44 0.0 0.0 0.00 0.00 0.00 89 1003.5
20260507013046 55 65 0.0 0.0 0.00 0.00 0.00 89 1003.5
20260507011548 55 43 0.0 0.0 0.00 0.00 0.00 89 1003.5
20260507010047 55 47 0.0 0.0 0.00 0.00 0.00 88 1003.6
20260507004545 55 24 0.0 0.0 0.00 0.00 0.00 88 1003.6
20260507003046 55 64 0.0 0.0 0.00 0.00 0.00 87 1003.6
20260507001607 55 72 0.0 0.0 0.00 0.00 0.00 87 1003.7
20260507000044 55 26 0.0 0.0 0.00 0.00 0.00 87 1003.6
20260506234548 56 288 0.0 0.0 0.00 0.00 0.00 88 1003.6
20260506233042 55 53 0.0 0.0 0.00 0.00 0.00 87 1003.7
20260506231543 56 258 0.0 0.0 0.00 0.00 0.00 88 1003.7
20260506230052 56 296 1.0 8.0 0.00 0.00 0.00 87 1003.7
20260506224539 56 221 0.0 0.0 0.00 0.00 0.00 87 1003.6
20260506223037 56 250 0.0 0.0 0.00 0.00 0.00 88 1003.7
20260506221536 55 302 0.0 0.0 0.00 0.00 0.00 88 1004.1
20260506220036 55 264 0.0 1.0 0.00 0.00 0.00 89 1004.0
20260506214533 55 278 0.0 0.0 0.00 0.00 0.00 89 1004.0
20260506213033 55 243 0.0 0.0 0.00 0.00 0.00 89 1004.0
20260506211530 55 255 0.0 0.0 0.00 0.00 0.00 90 1004.1
20260506210047 54 228 0.0 0.0 0.00 0.00 0.00 91 1004.0
20260506204527 54 200 0.0 0.0 0.00 0.00 0.00 92 1004.1
20260506203026 53 243 0.0 0.0 0.00 0.00 0.00 92 1003.9
20260506201526 53 308 0.0 0.0 0.00 0.00 0.00 92 1003.9
20260506200024 53 237 0.0 0.0 0.00 0.00 0.00 91 1003.8
20260506194527 53 226 0.0 0.0 0.00 0.00 0.00 91 1003.8
20260506193033 53 266 0.0 2.0 0.00 0.00 0.00 91 1003.8
20260506191522 53 225 0.0 1.0 0.00 0.00 0.00 92 1003.8
20260506190024 53 252 0.0 0.0 0.00 0.00 0.00 92 1003.8
20260506184529 53 245 0.0 0.0 0.00 0.00 0.00 92 1003.7
20260506183020 52 245 0.0 0.0 0.00 0.00 0.00 92 1003.5
20260506181529 52 262 0.0 0.0 0.00 0.00 0.00 93 1003.6
20260506180018 52 290 0.0 0.0 0.00 0.00 0.00 93 1003.6
20260506174519 52 258 0.0 0.0 0.00 0.00 0.00 94 1003.6
20260506173018 52 304 0.0 4.0 0.00 0.00 0.00 94 1003.5
20260506171515 52 280 0.0 5.0 0.00 0.00 0.00 94 1003.5
20260506170025 52 263 0.0 0.0 0.00 0.00 0.00 95 1003.3
20260506164535 51 190 0.0 0.0 0.00 0.00 0.00 95 1003.2
20260506163014 51 146 0.0 0.0 0.00 0.00 0.00 95 1003.0
20260506161512 51 266 0.0 0.0 0.00 0.00 0.00 95 1003.3
20260506160011 52 271 0.0 0.0 0.00 0.00 0.00 95 1003.3
20260506154512 51 230 0.0 0.0 0.00 0.00 0.00 95 1003.0
20260506153012 51 276 0.0 0.0 0.00 0.00 0.00 95 1003.2
20260506151514 51 272 0.0 2.0 0.00 0.00 0.00 96 1003.2
20260506150009 51 287 0.0 0.0 0.00 0.00 0.00 96 1002.9
20260506144516 51 216 0.0 0.0 0.00 0.00 0.00 96 1002.4
20260506143007 51 246 0.0 3.0 0.00 0.00 0.00 95 1002.9
20260506141521 51 257 0.0 0.0 0.00 0.00 0.00 95 1003.0
20260506140006 51 247 0.0 3.0 0.00 0.00 0.00 95 1002.9
20260506134504 51 261 0.0 0.0 0.00 0.00 0.00 95 1002.8
20260506133002 51 233 0.0 0.0 0.00 0.00 0.00 95 1002.4
20260506131616 51 234 0.0 0.0 0.00 0.00 0.00 95 1002.2
20260506131501 51 234 0.0 0.0 0.00 0.00 0.00 95 1002.2
20260506130100 51 239 0.0 0.0 0.00 0.00 0.00 95 1002.3
20260506124558 51 245 0.0 0.0 0.00 0.00 0.00 94 1002.1